Location: Fort Worth, Tx
(32.7431°N, 97.3695°W)
Time: 00:39:35
(UTC-04:00)

Courier 1B - Pass Details

Date: 29 February 2024
Orbit: 962 x 1208 km, 28.3° (Epoch: 22 April)

Event Time Altitude Azimuth Distance (km) Brightness Sun altitude
Rises 22:04:40 0° 224° (SW) 3,864 11.0 -33.8°
Reaches altitude 10° 22:07:54 10° 212° (SSW) 2,866 10.1 -34.5°
Enters shadow 22:09:35 16° 202° (SSW) 2,415 9.6 -34.8°
